Location: Bodest
(46.3000°N, 22.5667°E)
Time: 10:09:28
(UTC+00:00)

Cosmos 1727 Rocket - Pass Details

Date: 16 October 2021
Orbit: 960 x 997 km, 82.9° (Epoch: 07 December)

Event Time Altitude Azimuth Distance (km) Brightness Sun altitude
Rises 16:26:53 0° 352° (N) 3,688 7.1 -8.6°
Reaches altitude 10° 16:29:25 10° 353° (N) 2,731 6.4 -9.0°
Maximum altitude 16:35:41 80° 81° (E) 988 4.0 -10.1°
Drops below altitude 10° 16:41:51 10° 169° (SSE) 2,692 6.2 -11.2°
Sets 16:44:20 0° 170° (S) 3,632 6.9 -11.6°
